Location: Schommer Observatory
(40.5200°N, 74.4500°W)
Time: 16:14:27
(UTC-04:00)

X-37B - Pass Details

Date: 10 October 2017
Orbit: 259 x 286 km, 43.2° (Epoch: 06 October)

Event Time Altitude Azimuth Distance (km) Brightness Sun altitude
Exits shadow 05:50:56 10° 185° (S) 1,039 4.2 -14.6°
Reaches altitude 10° 05:51:00 10° 183° (S) 1,020 4.1 -14.6°
Maximum altitude 05:52:21 14° 147° (SSE) 843 4.2 -14.4°
Drops below altitude 10° 05:53:41 10° 111° (ESE) 1,031 5.3 -14.1°
Sets 05:56:06 0° 84° (E) 1,841 7.5 -13.6°
